This is the latest recevied weather packets stored in our database for station/object YB3RDW-13. If no packets are shown the sender has not sent any weather packets the latest 10 day(s).
| Time | Temp. | Humidity | Pressure | Rain* | Wind** | Luminosity | Snow |
|---|---|---|---|---|---|---|---|
| 1778060518 | 31.67° C | 61% | 1009 hPa | 0 mm | - | 32 W/m² | - |
| 1778060217 | 31.67° C | 61% | 1009 hPa | 0 mm | - | 38 W/m² | - |
| 1778059917 | 32.22° C | 58% | 1009 hPa | 0 mm | - | 43 W/m² | - |
| 1778059618 | 32.22° C | 58% | 1009 hPa | 0 mm | - | 51 W/m² | - |
| 1778059317 | 32.22° C | 57% | 1009 hPa | 0 mm | - | 59 W/m² | - |
| 1778059017 | 32.22° C | 57% | 1009 hPa | 0 mm | - | 65 W/m² | - |
| 1778058717 | 32.22° C | 57% | 1009 hPa | 0 mm | - | 73 W/m² | - |
| 1778058420 | 32.22° C | 57% | 1009 hPa | 0 mm | - | 78 W/m² | - |
| 1778058118 | 32.78° C | 55% | 1009 hPa | 0 mm | - | 89 W/m² | - |
| 1778057817 | 32.78° C | 57% | 1009 hPa | 0 mm | - | 87 W/m² | - |
| 1778057518 | 32.78° C | 57% | 1009 hPa | 0 mm | - | 82 W/m² | - |
| 1778057218 | 32.78° C | 57% | 1009 hPa | 0 mm | - | 120 W/m² | - |
| 1778056918 | 32.78° C | 55% | 1009 hPa | 0 mm | - | 137 W/m² | - |
| 1778056618 | 32.78° C | 55% | 1009 hPa | 0 mm | - | 151 W/m² | - |
| 1778056317 | 32.78° C | 57% | 1009 hPa | 0 mm | - | 162 W/m² | - |
| 1778056018 | 32.78° C | 57% | 1009 hPa | 0 mm | - | 178 W/m² | - |
| 1778055717 | 32.78° C | 57% | 1009 hPa | 0 mm | - | 192 W/m² | - |
| 1778055418 | 32.78° C | 57% | 1009 hPa | 0 mm | - | 207 W/m² | - |
| 1778055117 | 32.78° C | 57% | 1009 hPa | 0 mm | - | 207 W/m² | - |
| 1778054818 | 32.78° C | 56% | 1009 hPa | 0 mm | - | 221 W/m² | - |
| 1778054517 | 32.78° C | 58% | 1009 hPa | 0 mm | - | 240 W/m² | - |
| 1778054217 | 32.78° C | 56% | 1009 hPa | 0 mm | - | 255 W/m² | - |
| 1778053918 | 32.78° C | 57% | 1009 hPa | 0 mm | - | 276 W/m² | - |
| 1778053617 | 32.78° C | 55% | 1009 hPa | 0 mm | - | 285 W/m² | - |
| 1778053318 | 33.33° C | 56% | 1009 hPa | 0 mm | - | 285 W/m² | - |
* Rain latest hour (hover to see other rain measurements)
** Current wind speed in m/s (hover to see current wind gust speed)